User: anonymous   Login
Location: Nantong Television Tower
(32.0188°N, 120.8512°E)
Time: 19:56:26
(UTC+08:00)
Language:

ATLAS 3B CENTAUR R/B - Orbit

View from above orbital plane
View from above orbital plane
View from above satellite
View from above satellite

Ground track
Ground track

The orbit data is extracted from the following two-line orbital elements,

1 28118U 03057B   16271.88305807  .00076149  00000-0  11720-2 0  9991
2 28118  28.1446  85.0603 3217097 235.4343  89.9659  9.04252553265512
Epoch (UTC): 27 September 2016 21:11:36
Eccentricity: 0.3217097
inclination: 28.1446°
perigee height: 223 km
apogee height: 6485 km
right ascension of ascending node: 85.0603°
argument of perigee: 235.4343°
revolutions per day: 9.04252553
mean anomaly at epoch: 89.9659°
orbit number at epoch: 26551

The dashed part of the orbit path shows where the satellite is in the earth's shadow,  

DLR